This demonstration page uses our WeatherBlox Daily Observations layout. Learn more.

Left ArrowRight Arrow

41.86663, -103.66717

Hourly Observations for January 2, 2016

Temp ( °F °C ) Dew Point ( °F °C ) Humidity (%) Winds ( mph kmh ) Pressure ( in mb ) Visibility ( mi km ) Precip ( " mm )
12:53 am 00:53 Clear 13 -10.6 3 -16.1 64 64 NW 10 17 30.44 1031 10 16 N/A
1:53 am 01:53 Clear 15 -9.4 4 -15.6 61 61 WNW 12 19 30.42 1030 10 16 N/A
2:53 am 02:53 Clear 11 -11.7 3 -16.1 70 70 NNW 5 7 30.42 1030 10 16 N/A
3:53 am 03:53 Clear 15 -9.4 3 -16.1 59 59 NW 10 17 30.39 1029 10 16 N/A
4:53 am 04:53 Clear 13 -10.6 3 -16.1 64 64 NW 12 19 30.42 1030 10 16 N/A
5:53 am 05:53 Clear 11 -11.7 2 -16.7 67 67 NW 10 17 30.45 1031 10 16 N/A
6:53 am 06:53 Clear 12 -11.1 3 -16.1 67 67 NW 12 19 30.47 1032 10 16 N/A
7:53 am 07:53 Sunny 14 -10 3 -16.1 61 61 NW 9 15 30.47 1032 10 16 N/A
8:53 am 08:53 Sunny 19 -7.2 5 -15 54 54 WNW 10 17 30.46 1032 10 16 N/A
9:53 am 09:53 Sunny 24 -4.4 8 -13.3 50 50 WNW 16 26 30.46 1032 10 16 N/A
10:53 am 10:53 Sunny 28 -2.2 10 -12.2 47 47 WNW 13 20 30.45 1031 10 16 N/A
11:53 am 11:53 Sunny 30 -1.1 12 -11.1 47 47 WNW 14 22 30.41 1030 10 16 N/A
12:53 pm 12:53 Sunny 32 undefined 14 -10 47 47 WNW 12 19 30.38 1029 10 16 N/A
1:53 pm 13:53 Sunny 34 1.1 16 -8.9 48 48 WNW 10 17 30.35 1028 10 16 N/A
2:53 pm 14:53 Sunny 34 1.1 18 -7.8 52 52 WNW 8 13 30.37 1028 10 16 N/A
3:53 pm 15:53 Sunny 33 0.6 17 -8.3 52 52 W 7 11 30.37 1028 10 16 N/A
4:53 pm 16:53 Clear 30 -1.1 16 -8.9 56 56 NNW 5 7 30.39 1029 10 16 N/A
5:53 pm 17:53 Clear 24 -4.4 16 -8.9 71 71 NW 7 11 30.42 1030 10 16 N/A
6:53 pm 18:53 Clear 24 -4.4 15 -9.4 68 68 NNW 8 13 30.43 1030 10 16 N/A
7:53 pm 19:53 Clear 22 -5.6 13 -10.6 68 68 NW 10 17 30.44 1031 10 16 N/A
8:53 pm 20:53 Clear 20 -6.7 12 -11.1 71 71 NNW 12 19 30.43 1031 10 16 N/A
9:53 pm 21:53 Clear 18 -7.8 11 -11.7 74 74 NNW 9 15 30.43 1031 10 16 N/A
10:53 pm 22:53 Clear 15 -9.4 9 -12.8 77 77 WSW 12 19 30.42 1030 10 16 N/A
11:53 pm 23:53 Clear 15 -9.4 10 -12.2 80 80 NW 5 7 30.42 1030 10 16 N/A

Powered by AerisWeather